SL-14 DEB, 45303

Orbit data source: Space-Track

SL-14 DEB, 45303 is space debris in LEO originally from a launch on Thu, 15 Aug 1991 UTC launched from the Plesetsk Missile And Space Complex (PKMTR). Debris objects in space refer to the collection of defunct objects orbiting the Earth. Examples of debris include non-operational satellites, rocket bodies, and fragments generated from explosions, collisions, or faulty payload assembly.

Loading next visibility...
Identifier
45303, 1991-056AR
Orbit
LEO
Country
Flag of CISCIS
Related business
Manufacturer
Unknown
Mission
Spacecraft
Bus & Motor
Unknown
Mass
Unknown
Launch date (UTC)
1991-08-15 (34 years ago)
Launch vehicle
Unknown
Launch site
Plesetsk Missile And Space Complex (PKMTR)
Object type
Payload
Rocket body
Debris
Shape & HBR
Unknown shape, 0.1 m
Radar Cross Section
Small (<0.1 m²)

Expand to show TLE details & history
Last TLE update: 21 hours ago

TLE from 21 hours ago
0 SL-14 DEB
1 45303U 91056AR  26035.12696236  .00030671  00000-0  13820-1 0  9999
2 45303  82.6011  94.2054 0144721 182.0500 178.0106 14.16637693297810
Epoch: 2026-02-04T03:02Z
TLE epoch observation values (Epoch: 2026-02-04T03:02:49.547Z)
Latitude
-0.00001°
Longitude
-85.79906°
Altitude
944.07 km
Speed
7.326 km/s
True Right ascension
06h 16m 49s
True Declination
0° 00' 00"
Sunlit
Object was in full shadow at epoch
Visualization orbit readout
Latitude
Unknown
Longitude
Unknown
Altitude
Unknown
Speed
Unknown
Apparent Right ascension
Unknown
Apparent Declination
Unknown
Sunlit
N/A
Visualization observer readout
Local Sidereal Time
02:18:42
Azimuth
Unknown
Elevation
Unknown
Doppler factor
Unknown
Orbital elements
Apogee altitude
938.223 km
Perigee altitude
729.478 km
Semi-major axis
7,211.987 km
Eccentricity
0.01447
Inclination
82.6011°
RAAN
94.2054°
Arg. of periapsis
182.05°
True anomaly
178.06715°
Mean anomaly
178.0106°
Eccentric anomaly
178.03897°
Mean motion
3.54373 °/min
Orbital period
101.59 mins
BSTAR
0.01382
Loading maneuver chart data...
Computing Atmospheric mass density...
Loading historical data...
Loading historical data...
Loading historical data...
Loading historical data...
Loading historical data...
Loading historical data...
Loading historical data...

Documentation

Showing up to 5 results
|